Location: Peterborough
(44.3091°N, 78.3197°W)
Time: 01:35:47
(UTC-04:00)

SR - Pass Details

Date: 31 March 2023
Orbit: 581 x 867 km, 66.7° (Epoch: 02 June)

Event Time Altitude Azimuth Distance (km) Brightness Sun altitude
Rises 02:19:51 0° 218° (SW) 2,986 - -39.6°
Reaches altitude 10° 02:22:14 10° 222° (SW) 2,036 - -39.5°
Maximum altitude 02:26:45 64° 304° (WNW) 684 - -39.2°
Exits shadow 02:30:55 11° 26° (NNE) 1,880 ? -38.9°
Drops below altitude 10° 02:31:03 10° 26° (NNE) 1,932 ? -38.9°
Sets 02:33:16 0° 30° (NNE) 2,821 ? -38.7°
